Haines, AK

4:12 PM AKDT on June 22, 2017 (GMT -0800)
Haines

Weather History for PAHN - October, 2012

Change the Weather History Date:

Wednesday, October 24, 2012

  Actual Average Record
Temperature  
Mean Temperature 34 °F -  
Max Temperature 37 °F 41 °F 52 °F (1998)
Min Temperature 30 °F 33 °F 21 °F (1982)
Degree Days  
Heating Degree Days 32    
Moisture  
Dew Point 14 °F    
Average Humidity 46    
Maximum Humidity 54    
Minimum Humidity 34    
Precipitation  
Precipitation 0.00 in - - ()
Sea Level Pressure  
Sea Level Pressure 30.41 in    
Wind  
Wind Speed 11 mph (WNW)    
Max Wind Speed 16 mph    
Max Gust Speed 24 mph    
Visibility 10 miles    
Events      
Averages and records for this station are not official NWS values.
T = Trace of Precipitation, MM = Missing Value Source: NWS Daily Summary

Daily Weather History Graph

Daily Weather History Graph

Search for Another Location

Airport or City:

Trip Planner

Search our weather history database for the weather conditions in past years. The results will help you decide how hot, cold, wet, or windy it might be!

Date:

Astronomy

Oct. 24, 2012 Rise Set
Actual Time 8:03 AM AKDT 5:28 PM AKDT
Civil Twilight 7:20 AM AKDT 6:10 PM AKDT
Nautical Twilight 6:32 AM AKDT 6:58 PM AKDT
Astronomical Twilight 5:45 AM AKDT 7:45 PM AKDT
Moon 3:43 PM AKDT (10/24) 2:01 AM AKDT (10/24)
Length of Visible Light 10h 50m
Length of Day
9h 25m
Waxing Gibbous, 77% of the Moon is Illuminated
Oct 24
Waxing Gibbous
Oct 29
Full
Nov 6
Last Quarter
Nov 13
New
Nov 20
First Quarter

Hourly Weather History & Observations

Time (AKDT) Temp. Windchill Dew Point Humidity Pressure Visibility Wind Dir Wind Speed Gust Speed Precip Events Conditions
12:54 AM 32.0 °F 23.6 °F 15.1 °F 50% 30.31 in 10.0 mi NW 10.4 mph - N/A   Clear
1:54 AM 32.0 °F 23.0 °F 15.1 °F 50% 30.32 in 10.0 mi NW 11.5 mph - N/A   Partly Cloudy
2:54 AM 30.9 °F 21.7 °F 15.1 °F 52% 30.32 in 10.0 mi NW 11.5 mph - N/A   Clear
3:54 AM 30.0 °F 21.1 °F 15.1 °F 54% 30.33 in 10.0 mi NW 10.4 mph - N/A   Clear
4:54 AM 30.9 °F 21.7 °F 14.0 °F 50% 30.33 in 10.0 mi NW 11.5 mph - N/A   Mostly Cloudy
5:54 AM 30.9 °F 21.7 °F 14.0 °F 50% 30.34 in 10.0 mi NW 11.5 mph - N/A   Mostly Cloudy
6:54 AM 30.9 °F 20.7 °F 14.0 °F 50% 30.35 in 10.0 mi WNW 13.8 mph - N/A   Partly Cloudy
7:54 AM 30.0 °F 19.5 °F 14.0 °F 51% 30.36 in 10.0 mi WNW 13.8 mph - N/A   Mostly Cloudy
8:54 AM 30.9 °F 21.2 °F 14.0 °F 50% 30.38 in 10.0 mi WNW 12.7 mph - N/A   Clear
9:54 AM 32.0 °F 21.2 °F 14.0 °F 48% 30.38 in 10.0 mi WNW 16.1 mph - N/A   Scattered Clouds
10:54 AM 34.0 °F 25.5 °F 14.0 °F 44% 30.40 in 10.0 mi WNW 11.5 mph - N/A   Mostly Cloudy
11:54 AM 35.1 °F 25.9 °F 14.0 °F 42% 30.40 in 10.0 mi WNW 13.8 mph - N/A   Scattered Clouds
12:54 PM 36.0 °F 27.1 °F 14.0 °F 41% 30.40 in 10.0 mi WNW 13.8 mph - N/A   Clear
1:54 PM 37.0 °F 29.8 °F 14.0 °F 39% 30.41 in 10.0 mi West 10.4 mph - N/A   Partly Cloudy
2:54 PM 36.0 °F - 14.0 °F 41% 30.42 in 10.0 mi Calm Calm - N/A   Partly Cloudy
3:54 PM 35.1 °F - 15.1 °F 44% 30.43 in 10.0 mi Calm Calm - N/A   Clear
4:54 PM 36.0 °F 32.1 °F 10.0 °F 34% 30.44 in 10.0 mi West 4.6 mph - N/A   Clear
5:54 PM 36.0 °F 32.1 °F 10.0 °F 34% 30.47 in 10.0 mi Variable 4.6 mph 16.1 mph N/A   Overcast
6:54 PM 36.0 °F 27.1 °F 10.0 °F 34% 30.48 in 10.0 mi West 13.8 mph 24.2 mph N/A   Overcast
7:54 PM 33.1 °F 24.9 °F 12.9 °F 43% 30.49 in 10.0 mi West 10.4 mph 19.6 mph N/A   Partly Cloudy
8:54 PM 30.9 °F 22.8 °F 16.0 °F 54% 30.51 in 10.0 mi WNW 9.2 mph - N/A   Partly Cloudy
9:54 PM 30.0 °F 21.7 °F 14.0 °F 51% 30.51 in 10.0 mi NW 9.2 mph - N/A   Clear
11:54 PM 30.0 °F 20.0 °F 12.9 °F 49% 30.54 in 10.0 mi NW 12.7 mph - N/A   Scattered Clouds